Flag for Cyprus Weather past 2 weeks in Paphos, Cyprus

Now
57 °F

Clear.


Feels Like: 56 °F
Forecast: 58 / 82 °F
Wind: 7 mph from North

Location: Paphos Airport

Current Time: Apr 28, 2015 at 2:16:10 AM

Latest Report: Apr 28, 2015 at 2:00 AM


Visibility: 10 mi

Pressure: 29.92 "Hg

Humidity: 67%

Dew point: 46 °F

Location of PaphosLocation

Historic Weather in Paphos — Graph

°F

Paphos temperature yesterday

Maximum temperature yesterday: 75 °F (at 2:30 PM)
Minimum temperature yesterday: 57 °F (at 5:00 AM)
Average temperature yesterday: 66 °F

Past Weeks' High & Low Weather Summary

 TemperatureHumidityPressure
High75 °F (Apr 20, 2:00 PM)94% (Apr 17, 11:30 PM)30.24 "Hg (Apr 17, 11:30 PM)
Low48 °F (Apr 23, 4:00 AM)30% (Apr 15, 9:30 AM)29.71 "Hg (Apr 20, 6:00 PM)
Average62 °F67%30.02 "Hg
* Reported Apr 13 1:00 AM — Apr 28 1:00 AM, Paphos, Weather by CustomWeather, © 2015

Note: Actual official high and low records may vary slightly from our data, if they occured in-between our weather recording intervals... More about our weather records

Advertising

Paphos weather history for previous 24 hours

 ConditionsComfort  
Time TempWeatherWind HumidityBarometerVisibility
1:00 AM
Tue, Apr 28
61 °FClear.8 mph63%29.92 "Hg10 mi
12:30 AM59 °FClear.9 mph68%29.92 "Hg10 mi
12:00 AM63 °FClear.8 mph59%29.92 "Hg10 mi
11:30 PM
Mon, Apr 27
63 °FClear.8 mph59%29.92 "Hg10 mi
11:00 PM61 °FClear.7 mph63%29.92 "Hg10 mi
10:30 PM61 °FClear.6 mph63%29.92 "Hg10 mi
10:00 PM63 °FClear.5 mph64%29.92 "Hg10 mi
9:30 PM63 °FClear.2 mph68%29.92 "Hg10 mi
9:00 PM64 °FClear.3 mph64%29.92 "Hg10 mi
8:30 PM64 °FSunny.1 mph64%29.92 "Hg10 mi
8:00 PM66 °FSunny.1 mph68%29.92 "Hg10 mi
7:30 PM68 °FSunny.3 mph78%29.89 "Hg10 mi
7:00 PM70 °FSunny.2 mph69%29.89 "Hg10 mi
6:30 PM72 °FSunny.6 mph61%29.89 "Hg10 mi
6:00 PM72 °FSunny.6 mph61%29.89 "Hg10 mi
5:30 PM72 °FPassing clouds.6 mph69%29.89 "HgN/A
5:00 PM73 °FSunny.7 mph65%29.92 "Hg10 mi
4:30 PM73 °FPassing clouds.6 mph65%29.92 "HgN/A
4:00 PM75 °FPassing clouds.6 mph61%29.92 "HgN/A
3:30 PM75 °FPassing clouds.5 mph50%29.92 "HgN/A
3:00 PM73 °FPassing clouds.8 mph53%29.92 "HgN/A
2:30 PM75 °FPassing clouds.5 mph57%29.92 "HgN/A
2:00 PM73 °FPassing clouds.3 mph61%29.92 "HgN/A
1:30 PM73 °FSunny.8 mph61%29.95 "Hg10 mi
1:00 PM73 °FPassing clouds.7 mph57%29.95 "HgN/A
12:30 PM73 °FPassing clouds.6 mph61%29.95 "HgN/A
12:00 PM73 °FPassing clouds.5 mph57%29.95 "HgN/A
11:30 AM72 °FPassing clouds.7 mph61%29.95 "HgN/A
11:00 AM73 °FPassing clouds.6 mph53%29.95 "HgN/A
10:30 AM72 °FPassing clouds.5 mph57%29.95 "HgN/A
10:00 AM72 °FPassing clouds.5 mph53%29.95 "HgN/A
9:30 AM70 °FSunny.5 mph53%29.92 "Hg10 mi
9:00 AM72 °FSunny.6 mph50%29.92 "Hg10 mi
8:30 AM68 °FSunny.No wind53%29.92 "Hg10 mi
8:00 AM66 °FSunny.2 mph60%29.92 "Hg10 mi
7:30 AM63 °FSunny.3 mph64%29.92 "Hg10 mi
7:00 AM59 °FClear.2 mph68%29.92 "Hg10 mi
6:30 AM57 °FClear.7 mph72%29.92 "Hg10 mi
6:00 AM57 °FClear.6 mph72%29.92 "Hg10 mi
5:30 AM57 °FCool.7 mph72%29.92 "HgN/A
5:00 AM57 °FCool.6 mph67%29.92 "HgN/A
4:30 AM59 °FCool.6 mph63%29.92 "HgN/A
4:00 AM61 °FRefreshingly cool.8 mph59%29.92 "HgN/A
3:30 AM59 °FCool.3 mph63%29.92 "HgN/A
3:00 AM59 °FClear.3 mph63%29.92 "Hg10 mi
2:30 AM61 °FPassing clouds.3 mph59%29.95 "HgN/A
2:00 AM61 °FClear.8 mph59%29.95 "Hg10 mi
Weather by CustomWeather, © 2015

See weather overviewHow to use our weather pages